This demonstration page uses our WeatherBlox Daily Observations layout. Learn more.

Left ArrowRight Arrow

47.50024, -111.30081

Hourly Observations for January 29, 2018

Temp ( °F °C ) Dew Point ( °F °C ) Humidity (%) Winds ( mph kmh ) Pressure ( in mb ) Visibility ( mi km ) Precip ( " mm )
12:53 am 00:53 Cloudy 21 -6.1 13 -10.6 71 71 Calm 30.42 1030 10 16 0.00 0.00
1:53 am 01:53 Cloudy 32 0 23 -5 69 69 SSW 14 22 30.38 1029 10 16 0.00 0.00
2:53 am 02:53 Partly Cloudy 38 3.3 26 -3.3 62 62 SW 16 26 30.34 1028 10 16 0.00 0.00
3:53 am 03:53 Cloudy 42 5.6 28 -2.2 58 58 SW 22 35 30.31 1027 10 16 0.00 0.00
4:53 am 04:53 Partly Cloudy 44 6.7 27 -2.8 51 51 SW 20 31 30.29 1026 10 16 0.00 0.00
5:53 am 05:53 Partly Cloudy 46 7.8 26 -3.3 46 46 SW 22 35 30.28 1025 10 16 0.00 0.00
6:53 am 06:53 Partly Cloudy 46 7.8 26 -3.3 46 46 SW 25 41 30.27 1025 10 16 0.00 0.00
7:53 am 07:53 Clear 46 7.8 24 -4.4 42 42 SW 23 37 30.27 1025 10 16 0.00 0.00
8:53 am 08:53 Sunny 46 7.8 24 -4.4 42 42 SW 24 39 30.25 1025 10 16 0.00 0.00
9:53 am 09:53 Sunny 48 8.9 22 -5.6 36 36 SW 25 41 30.24 1024 10 16 0.00 0.00
10:53 am 10:53 Mostly Sunny 50 10 22 -5.6 33 33 SW 23 37 30.20 1023 10 16 0.00 0.00
11:53 am 11:53 Sunny 51 10.6 22 -5.6 32 32 SW 30 48 30.16 1022 10 16 0.00 0.00
12:53 pm 12:53 Cloudy 51 10.6 21 -6.1 31 31 SW 25 41 30.15 1021 10 16 0.00 0.00
1:53 pm 13:53 Mostly Sunny 51 10.6 21 -6.1 31 31 SW 21 33 30.08 1019 10 16 0.00 0.00
2:53 pm 14:53 Partly Cloudy 51 10.6 21 -6.1 31 31 SW 22 35 30.03 1017 10 16 0.00 0.00
3:53 pm 15:53 Sunny 51 10.6 20 -6.7 29 29 SW 21 33 29.99 1016 10 16 0.00 0.00
4:53 pm 16:53 Sunny 53 11.7 20 -6.7 27 27 SW 21 33 29.94 1014 10 16 0.00 0.00
5:53 pm 17:53 Clear 50 10 19 -7.2 29 29 SW 17 28 29.92 1013 10 16 0.00 0.00
6:53 pm 18:53 Clear 44 6.7 20 -6.7 38 38 SSW 15 24 29.91 1013 10 16 0.00 0.00
7:53 pm 19:53 Clear 43 6.1 21 -6.1 42 42 S 10 17 29.87 1012 10 16 0.00 0.00
8:53 pm 20:53 Clear 46 7.8 20 -6.7 35 35 S 14 22 29.81 1009 10 16 0.00 0.00
9:53 pm 21:53 Clear 47 8.3 18 -7.8 31 31 SSW 17 28 29.76 1008 10 16 0.00 0.00
10:53 pm 22:53 Clear 51 10.6 19 -7.2 28 28 SW 26 43 29.73 1007 10 16 0.00 0.00

Powered by AerisWeather